When you browse on this site, cookies collect data to enhance your experience and personalize the content and advertising you see.
Visit our Privacy Policy to learn more. By continuing to use the site, you agree to this use of cookies and data.
  • In Latvia
  • List of Countries
  • For 7 days
  • Water Temperature
  • Satellite Maps
  • Weather Map
  • Weather Widgets
  • user-avatar
    Login

    Hourly Weather Dallas

    Today, 19 July, Friday

    Time Temperature Precipitation Wind Pressure Humidity
    00:00 +32°C° 0 mm 6 mps 748 mmHg 68%
    01:00 +32°C° 0 mm 6 mps 748 mmHg 70%
    02:00 +30°C° 0 mm 5 mps 748 mmHg 73%
    03:00 +30°C° 0 mm 5 mps 748 mmHg 76%
    04:00 +29°C° 0 mm 5 mps 748 mmHg 76%
    05:00 +29°C° 0 mm 5 mps 748 mmHg 75%
    06:00 +28°C° 0 mm 4 mps 748 mmHg 75%
    07:00 +30°C° 0 mm 4 mps 748 mmHg 69%
    08:00 +32°C° 0 mm 5 mps 749 mmHg 63%
    09:00 +33°C° 0 mm 5 mps 749 mmHg 57%
    10:00 +34°C° 0 mm 5 mps 749 mmHg 52%
    11:00 +36°C° 0 mm 5 mps 749 mmHg 46%
    12:00 +39°C° 0 mm 6 mps 749 mmHg 40%
    13:00 +39°C° 0 mm 6 mps 748 mmHg 38%
    14:00 +40°C° 0 mm 6 mps 748 mmHg 37%
    15:00 +40°C° 0 mm 6 mps 747 mmHg 35%
    16:00 +40°C° 0 mm 6 mps 747 mmHg 37%
    17:00 +39°C° 0 mm 5 mps 747 mmHg 40%
    18:00 +39°C° 0 mm 5 mps 747 mmHg 43%
    19:00 +37°C° 0 mm 5 mps 747 mmHg 46%
    20:00 +35°C° 0 mm 5 mps 747 mmHg 49%
    21:00 +34°C° 0 mm 5 mps 747 mmHg 52%
    22:00 +33°C° 0 mm 5 mps 748 mmHg 56%
    23:00 +33°C° 0 mm 5 mps 748 mmHg 61%

    Tomorrow, 20 July, Saturday

    Time Temperature Precipitation Wind Pressure Humidity
    00:00 +32°C° 0 mm 5 mps 748 mmHg 65%
    01:00 +30°C° 0 mm 5 mps 748 mmHg 68%
    02:00 +30°C° 0 mm 5 mps 747 mmHg 71%
    03:00 +29°C° 0 mm 5 mps 747 mmHg 73%
    04:00 +29°C° 0 mm 5 mps 747 mmHg 76%
    05:00 +28°C° 0 mm 5 mps 748 mmHg 78%
    06:00 +28°C° 0 mm 5 mps 748 mmHg 81%
    07:00 +29°C° 0 mm 5 mps 748 mmHg 75%
    08:00 +30°C° 0 mm 5 mps 748 mmHg 70%
    09:00 +32°C° 0 mm 5 mps 749 mmHg 65%
    10:00 +34°C° 0 mm 5 mps 748 mmHg 58%
    11:00 +35°C° 0 mm 5 mps 748 mmHg 52%
    12:00 +37°C° 0 mm 5 mps 748 mmHg 45%
    13:00 +39°C° 0 mm 5 mps 748 mmHg 41%
    14:00 +40°C° 0 mm 5 mps 747 mmHg 37%
    15:00 +40°C° 0 mm 5 mps 747 mmHg 33%
    16:00 +40°C° 0 mm 5 mps 746 mmHg 35%
    17:00 +40°C° 0 mm 5 mps 746 mmHg 36%
    18:00 +39°C° 0 mm 5 mps 746 mmHg 37%
    19:00 +37°C° 0 mm 5 mps 746 mmHg 40%
    20:00 +36°C° 0 mm 5 mps 746 mmHg 43%
    21:00 +35°C° 0 mm 5 mps 747 mmHg 46%
    22:00 +34°C° 0 mm 6 mps 747 mmHg 51%
    23:00 +33°C° 0 mm 6 mps 747 mmHg 56%

    Day after tomorrow, 21 July, Sunday

    Time Temperature Precipitation Wind Pressure Humidity
    00:00 +32°C° 0 mm 6 mps 747 mmHg 62%
    01:00 +30°C° 0 mm 6 mps 747 mmHg 66%
    02:00 +30°C° 0 mm 5 mps 747 mmHg 70%
    03:00 +29°C° 0 mm 5 mps 747 mmHg 74%
    04:00 +29°C° 0 mm 5 mps 748 mmHg 75%
    05:00 +28°C° 0 mm 4 mps 748 mmHg 76%
    06:00 +28°C° 0 mm 4 mps 748 mmHg 78%
    07:00 +29°C° 0 mm 4 mps 749 mmHg 71%
    08:00 +30°C° 0 mm 4 mps 749 mmHg 65%
    09:00 +33°C° 0 mm 4 mps 749 mmHg 58%
    10:00 +34°C° 0 mm 4 mps 749 mmHg 51%
    11:00 +36°C° 0 mm 3 mps 749 mmHg 44%
    12:00 +38°C° 0 mm 3 mps 749 mmHg 37%
    13:00 +39°C° 0 mm 3 mps 749 mmHg 34%
    14:00 +39°C° 0 mm 3 mps 748 mmHg 32%
    15:00 +40°C° 0 mm 3 mps 748 mmHg 29%
    16:00 +40°C° 0 mm 3 mps 747 mmHg 30%
    17:00 +39°C° 0 mm 3 mps 747 mmHg 31%
    18:00 +39°C° 0 mm 3 mps 747 mmHg 32%
    19:00 +38°C° 0 mm 3 mps 747 mmHg 35%
    20:00 +36°C° 0 mm 4 mps 747 mmHg 39%
    21:00 +35°C° 0 mm 4 mps 747 mmHg 43%
    22:00 +34°C° 0 mm 4 mps 747 mmHg 45%
    23:00 +33°C° 0 mm 4 mps 748 mmHg 47%

    22 July, Monday

    Time Temperature Precipitation Wind Pressure Humidity
    00:00 +33°C° 0 mm 4 mps 748 mmHg 49%
    01:00 +32°C° 0 mm 4 mps 748 mmHg 53%
    02:00 +31°C° 0 mm 3 mps 748 mmHg 57%
    03:00 +30°C° 0 mm 3 mps 748 mmHg 61%
    04:00 +30°C° 0 mm 3 mps 749 mmHg 63%
    05:00 +30°C° 0 mm 3 mps 749 mmHg 65%
    06:00 +29°C° 0 mm 2 mps 749 mmHg 67%
    07:00 +30°C° 0.1 mm 3 mps 750 mmHg 64%
    08:00 +31°C° 0.1 mm 3 mps 750 mmHg 61%
    09:00 +31°C° 0.1 mm 3 mps 750 mmHg 59%
    10:00 +31°C° 0 mm 3 mps 750 mmHg 59%
    11:00 +33°C° 0 mm 4 mps 750 mmHg 59%
    12:00 +33°C° 0 mm 5 mps 750 mmHg 60%
    13:00 +33°C° 0 mm 5 mps 750 mmHg 58%
    14:00 +33°C° 0 mm 5 mps 750 mmHg 57%
    15:00 +33°C° 0 mm 5 mps 749 mmHg 56%
    16:00 +33°C° 0 mm 5 mps 749 mmHg 57%
    17:00 +32°C° 0 mm 6 mps 749 mmHg 57%
    18:00 +32°C° 0 mm 6 mps 749 mmHg 57%
    19:00 +30°C° 0 mm 6 mps 749 mmHg 60%
    20:00 +30°C° 0 mm 6 mps 750 mmHg 62%
    21:00 +29°C° 0 mm 5 mps 750 mmHg 64%
    22:00 +28°C° 0 mm 5 mps 751 mmHg 67%
    23:00 +27°C° 0 mm 5 mps 751 mmHg 70%

    23 July, Tuesday

    Time Temperature Precipitation Wind Pressure Humidity
    00:00 +26°C° 0 mm 5 mps 751 mmHg 73%
    01:00 +26°C° 0 mm 5 mps 751 mmHg 74%
    02:00 +25°C° 0 mm 5 mps 751 mmHg 74%
    03:00 +23°C° 0 mm 5 mps 751 mmHg 75%
    04:00 +23°C° 0 mm 5 mps 751 mmHg 73%
    05:00 +23°C° 0 mm 5 mps 752 mmHg 70%
    06:00 +22°C° 0 mm 5 mps 752 mmHg 68%
    07:00 +23°C° 0 mm 5 mps 752 mmHg 62%
    08:00 +24°C° 0 mm 6 mps 753 mmHg 55%
    09:00 +26°C° 0 mm 6 mps 753 mmHg 49%
    10:00 +28°C° 0 mm 6 mps 753 mmHg 46%
    11:00 +29°C° 0 mm 6 mps 752 mmHg 43%
    12:00 +32°C° 0 mm 6 mps 752 mmHg 41%
    13:00 +32°C° 0 mm 5 mps 752 mmHg 39%
    14:00 +33°C° 0 mm 5 mps 751 mmHg 38%
    15:00 +34°C° 0 mm 5 mps 751 mmHg 36%
    16:00 +33°C° 0 mm 5 mps 751 mmHg 37%
    17:00 +33°C° 0 mm 5 mps 750 mmHg 38%
    18:00 +33°C° 0 mm 4 mps 750 mmHg 39%
    19:00 +30°C° 0 mm 4 mps 751 mmHg 42%
    20:00 +29°C° 0 mm 4 mps 751 mmHg 45%
    21:00 +28°C° 0 mm 3 mps 752 mmHg 48%
    22:00 +27°C° 0 mm 3 mps 752 mmHg 50%
    23:00 +27°C° 0 mm 3 mps 752 mmHg 53%

    24 July, Wednesday

    Time Temperature Precipitation Wind Pressure Humidity
    00:00 +26°C° 0 mm 3 mps 752 mmHg 55%
    01:00 +25°C° 0 mm 3 mps 752 mmHg 55%
    02:00 +25°C° 0 mm 3 mps 751 mmHg 54%
    03:00 +25°C° 0 mm 3 mps 751 mmHg 54%
    04:00 +24°C° 0 mm 3 mps 752 mmHg 56%
    05:00 +22°C° 0 mm 3 mps 752 mmHg 59%
    06:00 +22°C° 0 mm 3 mps 752 mmHg 61%
    07:00 +24°C° 0 mm 3 mps 752 mmHg 57%
    08:00 +25°C° 0 mm 3 mps 753 mmHg 53%
    09:00 +27°C° 0 mm 3 mps 753 mmHg 49%
    10:00 +28°C° 0 mm 3 mps 752 mmHg 43%
    11:00 +30°C° 0 mm 3 mps 752 mmHg 37%
    12:00 +31°C° 0 mm 3 mps 752 mmHg 31%
    13:00 +33°C° 0 mm 4 mps 751 mmHg 29%
    14:00 +33°C° 0 mm 4 mps 751 mmHg 27%
    15:00 +34°C° 0 mm 4 mps 750 mmHg 25%
    16:00 +33°C° 0 mm 4 mps 750 mmHg 27%
    17:00 +33°C° 0 mm 4 mps 750 mmHg 29%
    18:00 +32°C° 0 mm 4 mps 749 mmHg 32%
    19:00 +30°C° 0 mm 4 mps 750 mmHg 35%
    20:00 +29°C° 0 mm 3 mps 750 mmHg 38%
    21:00 +27°C° 0 mm 3 mps 750 mmHg 41%
    22:00 +27°C° 0 mm 3 mps 750 mmHg 43%
    23:00 +26°C° 0 mm 2 mps 750 mmHg 44%
    Show more